EN

Hourly Weather Brussels

Today, 12 June, Saturday

Time Temperature Precipitation Wind Pressure Humidity
00:00 +16°C° 0 mm 3 mps 762 mmHg 93%
01:00 +14°C° 0 mm 3 mps 761 mmHg 94%
02:00 +14°C° 0 mm 3 mps 761 mmHg 94%
03:00 +14°C° 0 mm 3 mps 761 mmHg 95%
04:00 +14°C° 0 mm 3 mps 761 mmHg 93%
05:00 +16°C° 0 mm 3 mps 762 mmHg 91%
06:00 +17°C° 0 mm 3 mps 762 mmHg 89%
07:00 +17°C° 0 mm 3 mps 762 mmHg 87%
08:00 +18°C° 0 mm 3 mps 762 mmHg 86%
09:00 +18°C° 0 mm 3 mps 762 mmHg 84%
10:00 +19°C° 0 mm 4 mps 763 mmHg 77%
11:00 +20°C° 0 mm 4 mps 763 mmHg 70%
12:00 +21°C° 0 mm 5 mps 763 mmHg 62%
13:00 +21°C° 0 mm 5 mps 763 mmHg 59%
14:00 +22°C° 0 mm 5 mps 763 mmHg 55%
15:00 +22°C° 0 mm 5 mps 763 mmHg 51%
16:00 +21°C° 0 mm 5 mps 764 mmHg 55%
17:00 +19°C° 0 mm 5 mps 764 mmHg 60%
18:00 +18°C° 0 mm 4 mps 765 mmHg 64%
19:00 +15°C° 0 mm 4 mps 765 mmHg 68%
20:00 +14°C° 0 mm 3 mps 766 mmHg 71%
21:00 +13°C° 0 mm 2 mps 766 mmHg 75%
22:00 +12°C° 0 mm 2 mps 766 mmHg 75%
23:00 +12°C° 0 mm 2 mps 766 mmHg 75%

Tomorrow, 13 June, Sunday

Time Temperature Precipitation Wind Pressure Humidity
00:00 +11°C° 0 mm 1 mps 766 mmHg 75%
01:00 +11°C° 0 mm 1 mps 766 mmHg 76%
02:00 +11°C° 0 mm 1 mps 766 mmHg 76%
03:00 +10°C° 0 mm 1 mps 766 mmHg 77%
04:00 +12°C° 0 mm 1 mps 767 mmHg 74%
05:00 +13°C° 0 mm 1 mps 767 mmHg 70%
06:00 +14°C° 0 mm 1 mps 767 mmHg 67%
07:00 +16°C° 0 mm 1 mps 767 mmHg 63%
08:00 +18°C° 0 mm 1 mps 768 mmHg 59%
09:00 +20°C° 0 mm 1 mps 768 mmHg 55%
10:00 +21°C° 0 mm 1 mps 767 mmHg 53%
11:00 +22°C° 0 mm 1 mps 767 mmHg 51%
12:00 +24°C° 0 mm 2 mps 767 mmHg 49%
13:00 +24°C° 0 mm 2 mps 767 mmHg 49%
14:00 +25°C° 0 mm 1 mps 766 mmHg 48%
15:00 +25°C° 0 mm 1 mps 766 mmHg 48%
16:00 +25°C° 0 mm 2 mps 766 mmHg 52%
17:00 +24°C° 0 mm 2 mps 765 mmHg 56%
18:00 +24°C° 0 mm 2 mps 765 mmHg 61%
19:00 +21°C° 0 mm 2 mps 765 mmHg 66%
20:00 +19°C° 0 mm 2 mps 765 mmHg 72%
21:00 +17°C° 0 mm 2 mps 765 mmHg 78%
22:00 +16°C° 0 mm 2 mps 765 mmHg 78%
23:00 +16°C° 0 mm 2 mps 765 mmHg 79%

Day after tomorrow, 14 June, Monday

Time Temperature Precipitation Wind Pressure Humidity
00:00 +15°C° 0 mm 1 mps 765 mmHg 80%
01:00 +15°C° 0 mm 2 mps 764 mmHg 79%
02:00 +14°C° 0 mm 2 mps 764 mmHg 79%
03:00 +14°C° 0 mm 2 mps 764 mmHg 78%
04:00 +15°C° 0 mm 2 mps 764 mmHg 74%
05:00 +16°C° 0 mm 2 mps 764 mmHg 70%
06:00 +17°C° 0 mm 2 mps 764 mmHg 66%
07:00 +19°C° 0 mm 2 mps 763 mmHg 61%
08:00 +22°C° 0 mm 1 mps 763 mmHg 55%
09:00 +24°C° 0 mm 1 mps 763 mmHg 50%
10:00 +25°C° 0 mm 1 mps 763 mmHg 47%
11:00 +26°C° 0 mm 1 mps 762 mmHg 45%
12:00 +28°C° 0 mm 1 mps 762 mmHg 42%
13:00 +28°C° 0 mm 1 mps 762 mmHg 41%
14:00 +28°C° 0 mm 1 mps 762 mmHg 41%
15:00 +29°C° 0 mm 1 mps 761 mmHg 41%
16:00 +28°C° 0 mm 2 mps 761 mmHg 46%
17:00 +27°C° 0 mm 2 mps 761 mmHg 52%
18:00 +26°C° 0 mm 2 mps 761 mmHg 58%
19:00 +24°C° 0 mm 2 mps 761 mmHg 64%
20:00 +21°C° 0 mm 2 mps 761 mmHg 69%
21:00 +19°C° 0 mm 2 mps 762 mmHg 75%
22:00 +18°C° 0 mm 2 mps 762 mmHg 77%
23:00 +17°C° 0 mm 2 mps 762 mmHg 79%

15 June, Tuesday

Time Temperature Precipitation Wind Pressure Humidity
00:00 +18°C° 0 mm 1 mps 761 mmHg 80%
01:00 +16°C° 0 mm 1 mps 761 mmHg 82%
02:00 +16°C° 0 mm 1 mps 762 mmHg 84%
03:00 +15°C° 0 mm 1 mps 762 mmHg 85%
04:00 +16°C° 0 mm 1 mps 762 mmHg 83%
05:00 +18°C° 0 mm 1 mps 762 mmHg 80%
06:00 +19°C° 0 mm 1 mps 762 mmHg 78%
07:00 +21°C° 0 mm 1 mps 762 mmHg 73%
08:00 +22°C° 0 mm 1 mps 762 mmHg 68%
09:00 +24°C° 0 mm 1 mps 762 mmHg 64%
10:00 +25°C° 0 mm 1 mps 762 mmHg 61%
11:00 +26°C° 0 mm 1 mps 762 mmHg 58%
12:00 +27°C° 0 mm 1 mps 761 mmHg 55%
13:00 +27°C° 0 mm 2 mps 761 mmHg 55%
14:00 +27°C° 0 mm 2 mps 761 mmHg 55%
15:00 +27°C° 0 mm 2 mps 761 mmHg 56%
16:00 +26°C° 0 mm 3 mps 760 mmHg 61%
17:00 +25°C° 0 mm 3 mps 760 mmHg 65%
18:00 +25°C° 0 mm 3 mps 760 mmHg 70%
19:00 +22°C° 0 mm 3 mps 760 mmHg 76%
20:00 +21°C° 0 mm 3 mps 760 mmHg 82%
21:00 +19°C° 0 mm 3 mps 760 mmHg 87%
22:00 +19°C° 0 mm 2 mps 760 mmHg 89%
23:00 +18°C° 0 mm 2 mps 760 mmHg 91%

16 June, Wednesday

Time Temperature Precipitation Wind Pressure Humidity
00:00 +18°C° 0 mm 2 mps 760 mmHg 93%
01:00 +17°C° 0 mm 2 mps 759 mmHg 93%
02:00 +17°C° 0 mm 2 mps 759 mmHg 93%
03:00 +17°C° 0 mm 2 mps 758 mmHg 93%
04:00 +18°C° 0 mm 2 mps 758 mmHg 89%
05:00 +20°C° 0 mm 1 mps 758 mmHg 85%
06:00 +22°C° 0 mm 1 mps 758 mmHg 80%
07:00 +23°C° 0 mm 2 mps 758 mmHg 74%
08:00 +25°C° 0 mm 2 mps 758 mmHg 67%
09:00 +27°C° 0 mm 2 mps 757 mmHg 61%
10:00 +28°C° 0 mm 2 mps 757 mmHg 56%
11:00 +29°C° 0 mm 2 mps 757 mmHg 51%
12:00 +30°C° 0 mm 2 mps 756 mmHg 46%
13:00 +31°C° 0 mm 2 mps 756 mmHg 44%
14:00 +31°C° 0 mm 2 mps 756 mmHg 43%
15:00 +32°C° 0 mm 2 mps 756 mmHg 42%
16:00 +31°C° 0 mm 2 mps 755 mmHg 47%
17:00 +30°C° 0 mm 2 mps 755 mmHg 52%
18:00 +30°C° 0 mm 1 mps 755 mmHg 57%
19:00 +28°C° 0 mm 1 mps 755 mmHg 62%
20:00 +26°C° 0 mm 1 mps 755 mmHg 67%
21:00 +24°C° 0 mm 1 mps 755 mmHg 71%
22:00 +23°C° 0 mm 2 mps 755 mmHg 74%
23:00 +23°C° 0 mm 2 mps 755 mmHg 76%

17 June, Thursday

Time Temperature Precipitation Wind Pressure Humidity
00:00 +21°C° 0 mm 3 mps 754 mmHg 79%
01:00 +21°C° 0.2 mm 2 mps 754 mmHg 82%
02:00 +20°C° 0.2 mm 2 mps 754 mmHg 86%
03:00 +20°C° 0.2 mm 2 mps 754 mmHg 89%
04:00 +21°C° 0.2 mm 2 mps 754 mmHg 89%
05:00 +21°C° 0.2 mm 3 mps 754 mmHg 89%
06:00 +22°C° 0.2 mm 3 mps 754 mmHg 89%
07:00 +25°C° 0 mm 4 mps 754 mmHg 80%
08:00 +27°C° 0 mm 4 mps 754 mmHg 71%
09:00 +29°C° 0 mm 5 mps 754 mmHg 62%
10:00 +30°C° 0 mm 5 mps 754 mmHg 58%
11:00 +32°C° 0 mm 5 mps 754 mmHg 54%
12:00 +33°C° 0 mm 5 mps 755 mmHg 50%
13:00 +33°C° 0 mm 4 mps 754 mmHg 51%
14:00 +33°C° 0 mm 3 mps 754 mmHg 52%
15:00 +33°C° 0 mm 3 mps 754 mmHg 53%
16:00 +30°C° 0.4 mm 2 mps 754 mmHg 60%
17:00 +29°C° 0.4 mm 2 mps 753 mmHg 67%
18:00 +28°C° 0.4 mm 2 mps 753 mmHg 74%
19:00 +26°C° 1.2 mm 2 mps 753 mmHg 80%
20:00 +24°C° 1.2 mm 2 mps 753 mmHg 86%
21:00 +23°C° 1.2 mm 2 mps 753 mmHg 93%
22:00 +22°C° 0.6 mm 3 mps 753 mmHg 93%
23:00 +21°C° 0.6 mm 3 mps 753 mmHg 94%
Show more